Find Starlink 31904

NORAD ID: 59657 Int'l Des: 2024-084 Owner: SPXS Country: US Constellation: starlink operational
LEOCIRCULAR

現在のビュー

3D地球を読み込み中...

About Starlink 31904

Starlink 31904 (NORAD 59657) is a starlink constellation satellite (v2 mini) launched May 6, 2024 by SPXS of US. It operates in LEO, CIRCULAR orbit with a mass of 730.00 kg.

次回通過

Passes for default location (London). Set your location on the main map for personalized predictions.

高度履歴

Loading altitude history...

軌道要素

1 59657U 24084D 26236.54503105 .00001027 00000-0 46842-4 0 9990
2 59657 43.0026 173.9128 0001226 269.4347 90.6365 15.27573188130040
Epoch: Aug 24, 2026 • Age: 11 hours

現在のステータス

高度 486.5 km
遠地点 / 近地点 N/A
速度 7.63 km/s
衛星直下点 40.82°N, 100.68°W
打ち上げ日 May 6, 2024
運用期間 2.2 years
タイプ internet

技術仕様

分類 Payload
質量 730.00 kg
乾燥質量 700.00 kg
総質量 730.00 kg
長さ 0.30 m
直径 4.10 m
スパン 29.00 m
形状 Box + pan
製造者 SPXS
バスタイプ Starlink V2M
フェーズステータス In Orbit
所有者/国 SPXS/US

Most Searched